FW8733 Weather Reports


time (UTC)temp
C
wind
direction
speed
KPH
gust
KPH
rain 1hr
cm
rain 24hr
cm
rain mn
cm
humidity
%
barometer
mb
20260503043222 15 205 0.0 0.0 0.00 0.00 0.00 85 1025.3
20260503042717 15 205 0.0 0.0 0.00 0.00 0.00 84 1025.1
20260503042214 15 205 0.0 0.0 0.00 0.00 0.00 82 1025.2
20260503041710 15 205 0.0 0.0 0.00 0.00 0.00 81 1025.2
20260503041208 15 205 0.0 0.0 0.00 0.00 0.00 80 1025.0
20260503040705 14 205 0.0 0.0 0.00 0.00 0.00 81 1025.0
20260503040203 14 205 0.0 0.0 0.00 0.00 0.00 84 1024.9
20260503035659 14 205 0.0 0.0 0.00 0.00 0.00 84 1024.8
20260503035157 15 205 0.0 0.0 0.00 0.00 0.00 84 1024.9
20260503034654 15 205 0.0 0.0 0.00 0.00 0.00 83 1024.9
20260503034151 15 205 0.0 0.0 0.00 0.00 0.00 83 1024.8
20260503033649 15 205 0.0 0.0 0.00 0.00 0.00 83 1024.7
20260503033146 15 205 0.0 0.0 0.00 0.00 0.00 83 1024.7
20260503032644 15 205 0.0 0.0 0.00 0.00 0.00 81 1024.9
20260503032143 15 205 0.0 0.0 0.00 0.00 0.00 79 1024.7
20260503031639 15 205 0.0 0.0 0.00 0.00 0.00 75 1024.8
20260503031137 15 205 0.0 0.0 0.00 0.00 0.00 73 1024.6
20260503030633 16 205 0.0 0.0 0.00 0.00 0.00 70 1024.5
20260503030130 16 205 0.0 0.0 0.00 0.00 0.00 69 1024.5
20260503025626 16 205 0.0 0.0 0.00 0.00 0.00 69 1024.4
20260503025125 16 205 0.0 0.0 0.00 0.00 0.00 71 1024.4
20260503024621 16 204 0.0 0.0 0.00 0.00 0.00 68 1024.4
20260503024118 16 204 0.0 0.0 0.00 0.00 0.00 67 1024.5
20260503023615 16 204 0.0 0.0 0.00 0.00 0.00 67 1024.4
20260503023112 16 205 0.0 0.0 0.00 0.00 0.00 67 1024.4
20260503022607 17 204 0.0 0.0 0.00 0.00 0.00 68 1023.9
20260503022102 17 204 0.0 0.0 0.00 0.00 0.00 67 1023.9
20260503021600 17 204 0.0 0.0 0.00 0.00 0.00 66 1024.0
20260503021056 17 204 0.0 0.0 0.00 0.00 0.00 65 1023.8
20260503020553 17 204 0.0 0.0 0.00 0.00 0.00 63 1023.6
20260503020050 17 204 0.0 0.0 0.00 0.00 0.00 63 1023.7
20260503015547 17 204 0.0 0.0 0.00 0.00 0.00 63 1023.5
20260503015045 17 204 0.0 0.0 0.00 0.00 0.00 63 1023.8
20260503014540 17 204 0.0 0.0 0.00 0.00 0.00 64 1023.7
20260503014038 17 204 0.0 0.0 0.00 0.00 0.00 64 1023.5
20260503013535 17 204 0.0 0.0 0.00 0.00 0.00 63 1023.6
20260503013033 18 204 0.0 0.0 0.00 0.00 0.00 62 1023.5
20260503012530 18 204 0.0 0.0 0.00 0.00 0.00 61 1023.7
20260503012026 18 204 0.0 0.0 0.00 0.00 0.00 61 1023.3
20260503011523 18 205 0.0 0.0 0.00 0.00 0.00 60 1023.6
20260503011021 18 204 0.0 0.0 0.00 0.00 0.00 59 1023.3
20260503010516 19 204 0.0 0.0 0.00 0.00 0.00 59 1023.3
20260503010015 19 204 0.0 0.0 0.00 0.00 0.00 58 1023.3
20260503005511 20 205 0.0 0.0 0.00 0.00 0.00 57 1023.4
20260503005009 20 205 0.0 0.0 0.00 0.00 0.00 57 1023.4
20260503004504 20 205 0.0 0.0 0.00 0.00 0.00 56 1023.3
20260503004003 20 205 0.0 0.0 0.00 0.00 0.00 52 1023.1
20260503003459 20 205 0.0 0.0 0.00 0.00 0.00 51 1023.3
20260503002956 21 205 0.0 0.0 0.00 0.00 0.00 52 1023.2
20260503002453 21 204 0.0 0.0 0.00 0.00 0.00 49 1023.0
20260503001949 21 204 0.0 0.0 0.00 0.00 0.00 50 1023.1
20260503001446 21 205 0.0 0.0 0.00 0.00 0.00 49 1023.0
20260503000944 21 204 0.0 0.0 0.00 0.00 0.00 49 1023.2
20260503000441 21 264 0.0 0.0 0.00 0.00 0.00 45 1023.1
20260502235938 21 204 0.0 1.6 0.00 0.00 0.00 48 1023.1
20260502235435 21 240 0.0 0.0 0.00 0.00 0.00 49 1023.2
20260502234932 22 240 0.0 0.0 0.00 0.00 0.00 46 1023.0
20260502234429 22 240 0.0 0.0 0.00 0.00 0.00 46 1023.0
20260502233926 22 240 0.0 0.0 0.00 0.00 0.00 43 1023.1
20260502233421 22 296 1.6 3.2 0.00 0.00 0.00 43 1023.1
20260502232919 23 207 1.6 1.6 0.00 0.00 0.00 43 1023.1
20260502232414 23 195 0.0 1.6 0.00 0.00 0.00 44 1023.0
20260502231912 23 217 0.0 0.0 0.00 0.00 0.00 43 1023.0
20260502231409 24 265 0.0 0.0 0.00 0.00 0.00 42 1022.9
20260502230907 25 239 0.0 0.0 0.00 0.00 0.00 40 1023.0
20260502230405 24 238 0.0 0.0 0.00 0.00 0.00 41 1023.3
20260502225902 24 267 0.0 1.6 0.00 0.00 0.00 40 1023.1
20260502225358 24 231 4.8 9.7 0.00 0.00 0.00 38 1023.1
20260502224855 24 250 0.0 1.6 0.00 0.00 0.00 43 1023.1
20260502224351 24 213 0.0 1.6 0.00 0.00 0.00 41 1022.9
20260502223849 24 213 0.0 1.6 0.00 0.00 0.00 39 1022.9
20260502223347 24 178 4.8 4.8 0.00 0.00 0.00 44 1023.1
20260502222844 24 221 0.0 0.0 0.00 0.00 0.00 42 1023.1
20260502222342 25 233 0.0 0.0 0.00 0.00 0.00 39 1023.1
20260502221837 25 235 1.6 1.6 0.00 0.00 0.00 38 1023.4
20260502221334 24 186 0.0 0.0 0.00 0.00 0.00 42 1023.0
20260502220831 25 192 3.2 4.8 0.00 0.00 0.00 38 1023.1
20260502220327 24 201 3.2 3.2 0.00 0.00 0.00 43 1023.3
20260502215823 24 214 0.0 0.0 0.00 0.00 0.00 41 1023.3
20260502215321 24 198 8.0 9.7 0.00 0.00 0.00 40 1023.3
20260502214818 24 255 3.2 3.2 0.00 0.00 0.00 38 1023.4
20260502214315 25 199 3.2 3.2 0.00 0.00 0.00 39 1023.2
20260502213812 25 227 1.6 1.6 0.00 0.00 0.00 40 1023.5
20260502213309 25 198 0.0 1.6 0.00 0.00 0.00 43 1023.5
20260502212808 25 290 1.6 1.6 0.00 0.00 0.00 40 1023.4
20260502212306 25 202 1.6 3.2 0.00 0.00 0.00 40 1023.4
20260502211802 25 249 0.0 0.0 0.00 0.00 0.00 39 1023.6
20260502211258 25 203 3.2 4.8 0.00 0.00 0.00 40 1023.5
20260502210755 25 250 0.0 1.6 0.00 0.00 0.00 44 1023.7
20260502210253 25 180 0.0 1.6 0.00 0.00 0.00 43 1023.8
20260502205750 25 255 1.6 3.2 0.00 0.00 0.00 45 1024.2
20260502205246 25 182 4.8 4.8 0.00 0.00 0.00 41 1024.0
20260502204743 25 267 0.0 0.0 0.00 0.00 0.00 39 1024.1
20260502204240 25 254 0.0 0.0 0.00 0.00 0.00 44 1024.2
20260502203738 24 211 0.0 1.6 0.00 0.00 0.00 43 1024.2
20260502203236 25 208 0.0 1.6 0.00 0.00 0.00 43 1024.1
20260502202729 25 227 0.0 1.6 0.00 0.00 0.00 42 1024.3
20260502202228 25 221 4.8 8.0 0.00 0.00 0.00 39 1024.4
20260502201725 25 203 3.2 3.2 0.00 0.00 0.00 48 1024.3
20260502201222 24 255 0.0 0.0 0.00 0.00 0.00 44 1024.4
20260502200718 25 221 0.0 1.6 0.00 0.00 0.00 43 1024.7
20260502200214 25 168 1.6 3.2 0.00 0.00 0.00 42 1024.5
20260502195713 25 243 0.0 0.0 0.00 0.00 0.00 49 1024.5
20260502195209 25 208 0.0 1.6 0.00 0.00 0.00 51 1024.7
20260502194706 25 266 1.6 1.6 0.00 0.00 0.00 50 1024.6
20260502194203 24 238 1.6 1.6 0.00 0.00 0.00 49 1024.8
20260502193658 23 239 1.6 3.2 0.00 0.00 0.00 45 1024.7
20260502193156 23 239 0.0 0.0 0.00 0.00 0.00 46 1024.7
20260502192651 23 160 3.2 4.8 0.00 0.00 0.00 49 1024.8
20260502192149 23 198 0.0 0.0 0.00 0.00 0.00 49 1024.8
20260502191645 23 254 0.0 0.0 0.00 0.00 0.00 48 1024.7
20260502191143 23 206 1.6 3.2 0.00 0.00 0.00 49 1024.9
20260502190640 23 222 3.2 3.2 0.00 0.00 0.00 52 1024.8
20260502190139 23 207 1.6 1.6 0.00 0.00 0.00 50 1024.8
20260502185637 23 236 1.6 1.6 0.00 0.00 0.00 52 1024.8
20260502185135 23 246 1.6 1.6 0.00 0.00 0.00 50 1025.1
20260502184631 23 237 4.8 8.0 0.00 0.00 0.00 49 1024.9
20260502184127 23 208 1.6 3.2 0.00 0.00 0.00 49 1025.0
20260502183624 23 185 1.6 1.6 0.00 0.00 0.00 49 1025.1
20260502183120 23 210 0.0 0.0 0.00 0.00 0.00 53 1025.2
20260502182615 23 224 0.0 0.0 0.00 0.00 0.00 56 1025.3
20260502182111 23 201 0.0 1.6 0.00 0.00 0.00 59 1025.3
20260502181609 23 199 1.6 1.6 0.00 0.00 0.00 59 1025.3
20260502181108 23 201 0.0 1.6 0.00 0.00 0.00 56 1025.5
20260502180605 23 180 4.8 4.8 0.00 0.00 0.00 56 1025.5
20260502164008 21 210 0.0 0.0 0.00 0.00 0.00 62 1026.5
20260502163503 20 239 1.6 3.2 0.00 0.00 0.00 59 1026.4
20260502163000 20 190 0.0 0.0 0.00 0.00 0.00 66 1026.6
20260502162457 21 234 0.0 1.6 0.00 0.00 0.00 66 1026.7
20260502161954 20 234 0.0 0.0 0.00 0.00 0.00 65 1026.6
20260502161450 19 222 4.8 4.8 0.00 0.00 0.00 67 1026.6
20260502160949 18 255 1.6 1.6 0.00 0.00 0.00 71 1026.7
20260502160446 19 261 0.0 1.6 0.00 0.00 0.00 68 1026.7
20260502151930 17 252 1.6 3.2 0.00 0.00 0.00 75 1026.7
20260502151426 17 253 1.6 1.6 0.00 0.00 0.00 74 1026.8
20260502150924 17 254 0.0 1.6 0.00 0.00 0.00 77 1026.9
20260502150420 17 235 0.0 0.0 0.00 0.00 0.00 76 1026.5
20260502130306 11 235 0.0 0.0 0.00 0.00 0.00 99 1025.5
20260502123751 10 246 0.0 0.0 0.00 0.00 0.00 99 1025.2
20260502123248 10 254 0.0 0.0 0.00 0.00 0.00 99 1025.0
20260502122745 10 252 0.0 0.0 0.00 0.00 0.00 99 1025.2
20260502122241 10 252 0.0 0.0 0.00 0.00 0.00 99 1025.0
20260502121740 10 242 0.0 0.0 0.00 0.00 0.00 99 1024.9
20260502121237 10 242 0.0 0.0 0.00 0.00 0.00 99 1024.7
20260502120733 10 242 0.0 0.0 0.00 0.00 0.00 99 1024.6
20260502120230 10 242 0.0 0.0 0.00 0.00 0.00 99 1024.5
20260502115728 10 242 0.0 0.0 0.00 0.00 0.00 99 1024.4
20260502115225 10 242 0.0 0.0 0.00 0.00 0.00 99 1024.3
20260502114720 10 242 0.0 0.0 0.00 0.00 0.00 99 1024.1
20260502114218 10 242 0.0 0.0 0.00 0.00 0.00 99 1024.2
20260502113715 10 242 0.0 0.0 0.00 0.00 0.00 99 1024.2
20260502113213 10 242 0.0 0.0 0.00 0.00 0.00 99 1023.9
20260502112711 10 242 0.0 0.0 0.00 0.00 0.00 99 1023.8
20260502112208 10 242 0.0 0.0 0.00 0.00 0.00 99 1024.1
20260502111705 10 242 0.0 0.0 0.00 0.00 0.00 99 1023.8
20260502111203 10 242 0.0 0.0 0.00 0.00 0.00 99 1023.9
20260502110700 10 243 0.0 0.0 0.00 0.00 0.00 99 1024.0
20260502110157 10 242 0.0 0.0 0.00 0.00 0.00 99 1023.8
20260502105655 10 242 0.0 0.0 0.00 0.00 0.00 99 1023.7
20260502105152 10 242 0.0 0.0 0.00 0.00 0.00 99 1023.7
20260502104649 10 242 0.0 0.0 0.00 0.00 0.00 99 1023.6
20260502104147 10 242 0.0 0.0 0.00 0.00 0.00 99 1023.6
20260502103644 10 243 0.0 0.0 0.00 0.00 0.00 98 1023.3
20260502103141 10 242 0.0 0.0 0.00 0.00 0.00 98 1023.5
20260502102638 10 242 0.0 0.0 0.00 0.00 0.00 98 1023.4
20260502102135 10 242 0.0 0.0 0.00 0.00 0.00 98 1023.1
20260502101633 10 242 0.0 0.0 0.00 0.00 0.00 98 1023.1
20260502101131 10 243 0.0 0.0 0.00 0.00 0.00 98 1023.0
20260502100629 10 242 0.0 0.0 0.00 0.00 0.00 98 1023.0
20260502100127 10 242 0.0 0.0 0.00 0.00 0.00 98 1022.9
20260502091101 10 253 0.0 0.0 0.00 0.00 0.00 98 1022.6
20260502090558 10 249 0.0 0.0 0.00 0.00 0.00 99 1022.3
20260502071458 10 249 0.0 0.0 0.00 0.00 0.00 99 1022.1
20260502070956 11 249 0.0 0.0 0.00 0.00 0.00 99 1022.2
20260502070454 11 249 0.0 0.0 0.00 0.00 0.00 99 1022.3
20260502065952 11 249 0.0 0.0 0.00 0.00 0.00 99 1022.2
20260502065451 11 245 0.0 0.0 0.00 0.00 0.00 99 1022.0
20260502064948 11 245 0.0 0.0 0.00 0.00 0.00 99 1022.3
20260502064446 11 245 0.0 0.0 0.00 0.00 0.00 99 1022.0
20260502063943 11 245 0.0 0.0 0.00 0.00 0.00 99 1021.9
20260502063441 11 246 0.0 0.0 0.00 0.00 0.00 99 1022.0
20260502062938 11 245 0.0 0.0 0.00 0.00 0.00 99 1021.9
20260502062435 11 244 0.0 0.0 0.00 0.00 0.00 99 1022.0
20260502061934 11 245 0.0 0.0 0.00 0.00 0.00 99 1022.3
20260502061431 11 245 0.0 0.0 0.00 0.00 0.00 99 1022.1
20260502060927 11 245 0.0 0.0 0.00 0.00 0.00 99 1022.3
20260502060422 11 245 0.0 0.0 0.00 0.00 0.00 99 1022.1
20260502055920 11 245 0.0 0.0 0.00 3.12 3.12 99 1022.3
20260502055418 11 245 0.0 0.0 0.00 3.12 3.12 99 1022.3
20260502054917 11 245 0.0 0.0 0.00 3.12 3.12 99 1022.3
20260502054414 11 245 0.0 0.0 0.00 3.12 3.12 99 1022.3
20260502053912 11 245 0.0 0.0 0.00 3.12 3.12 99 1022.1
20260502053409 11 245 0.0 0.0 0.00 3.12 3.12 99 1022.3
20260502052906 11 246 0.0 0.0 0.00 3.12 3.12 99 1022.2
20260502052405 11 245 0.0 0.0 0.00 3.12 3.12 99 1022.3
20260502051902 11 245 0.0 0.0 0.00 3.12 3.12 99 1022.1
20260502051400 11 245 0.0 0.0 0.00 3.12 3.12 99 1022.1
20260502050857 11 245 0.0 0.0 0.00 3.12 3.12 99 1022.1
20260502050353 11 246 0.0 0.0 0.00 3.12 3.12 99 1022.1
20260502045850 11 246 0.0 0.0 0.00 3.12 3.12 99 1021.7
20260502045347 11 245 0.0 0.0 0.00 3.12 3.12 99 1021.8
20260502044844 11 245 0.0 0.0 0.00 3.12 3.12 99 1021.8
20260502044340 11 245 0.0 0.0 0.00 3.12 3.12 99 1021.9
20260502043837 11 246 0.0 0.0 0.00 3.12 3.12 99 1022.0